Other Public Products
Issued by NWS Charleston, SC

Current Version | Previous Version | Graphics & Text | Print | Product List | Glossary On
Versions: 1 2 3 4 5 6 7 8 9 10 11 12 13 14 15 16 17 18 19 20 21 22 23 24 25 26 27 28 29 30 31 32 33 34 35 36 37 38 39 40 41 42 43 44 45 46 47 48 49 50
647
FPUS82 KCHS 161212
OPUCHS

TEST...KCHS/KSAV Gateway Observations...TEST
National Weather Service Charleston SC
700 AM EST TUE JAN 16 2018

NOTE: "fair" indicates few or no clouds below 12,000 feet with no
significant weather and/or obstructions to visibility.

SCZ050-WAZ558-NCZ071-TXZ119-213-PAZ071-DCZ001-FLZ074-172-MI076-
NYZ176-178-MAZ016-IL014-TNZ027-NJZ106-GAZ044-MD014-161300-

...Gateway Observations for Charleston International...

CITY           SKY/WX    TMP DP  RH WIND       PRES   REMARKS
Chas Airport   FAIR      29  18  63 N5        30.47R WCI  24
6HR MIN TEMP:  27; 6HR MAX TEMP:  30;

Seattle        CLOUDY    49  47  93 CALM      30.07R
6HR MIN TEMP:  49; 6HR MAX TEMP:  53; 6HR PCP:  0.14;

Charlotte      FAIR      25  16  68 SE3       30.42R
6HR MIN TEMP:  18; 6HR MAX TEMP:  27;

Dallas DFW     CLOUDY    24   5  44 N23       30.72R WCI   9
6HR MIN TEMP:  24; 6HR MAX TEMP:  30; 6HR PCP: TRACE;

Dallas Love    CLOUDY    22   5  48 N17G25    30.75R WCI   8
6HR MIN TEMP:  22; 6HR MAX TEMP:  29; 6HR PCP: TRACE;

Philladelphia  CLOUDY    30  24  78 E3        30.50R
6HR MIN TEMP:  29; 6HR MAX TEMP:  30;

Wash National  CLOUDY    30  27  88 SE3       30.49S
6HR MIN TEMP:  30; 6HR MAX TEMP:  31;

Baltimore      CLOUDY    29  27  92 SE5       30.48R FOG     WCI  24
6HR MIN TEMP:  28; 6HR MAX TEMP:  29;

Miami          FAIR      62  56  80 N5        30.25R
6HR MIN TEMP:  62; 6HR MAX TEMP:  69;

Detroit        LGT SNOW  15   9  76 SW9       30.37R WCI   3
6HR MIN TEMP:  15; 6HR MAX TEMP:  20; 6HR PCP: TRACE;

Newark         CLOUDY    27  19  72 N6        30.51R WCI  20
6HR MIN TEMP:  22; 6HR MAX TEMP:  27;

Laguardia      CLOUDY    26  21  81 E6        30.51R WCI  19
6HR MIN TEMP:  24; 6HR MAX TEMP:  26;

J F K          MOCLDY    26  23  88 NE3       30.53R
6HR MIN TEMP:  23; 6HR MAX TEMP:  26;

Boston Logan   CLOUDY    22  15  75 NE5       30.53S WCI  16
6HR MIN TEMP:  21; 6HR MAX TEMP:  22;

Ft. Lauderdale FAIR      65  55  70 NE7       30.25R
6HR MIN TEMP:  64; 6HR MAX TEMP:  67;

Chicago O`Hare FLURRIES  13   9  84 W14       30.38R WCI  -2
6HR MIN TEMP:   9; 6HR MAX TEMP:  13; 6HR PCP:  0.01;

Chicago Midway LGT SNOW   8   4  83 W9        30.39R FOG     WCI  -5
6HR MIN TEMP:   6; 6HR MAX TEMP:   8; 6HR PCP: TRACE;

Houston Bush   LGT RAIN  33  31  92 N22G36    30.53R WCI  21
6HR MIN TEMP:  33; 6HR MAX TEMP:  54; 6HR PCP:  0.17;

Houston Hobby  CLOUDY    36  34  92 N25G33    30.50R WCI  24
6HR MIN TEMP:  36; 6HR MAX TEMP:  55;

Nashville      LGT SNOW  18  14  84 N9        30.55R FOG     WCI   7
6HR MIN TEMP:  18; 6HR MAX TEMP:  24; 6HR PCP: TRACE;

Atlanta        FAIR      32  24  72 SE5       30.37F WCI  27
6HR MIN TEMP:  31; 6HR MAX TEMP:  36;


$$

GAZ044-118-TXZ119-213-NCZ071-DCZ001-MDZ014-506-PAZ021-071-NJZ106-
NYZ176-178-MAZ106-OHZ011-021-055-MIZ076-KYZ091-ILZ014-INZ047-
MNZ060-ONZ431-161300-

...Gateway Observations for Savannah International...

CITY           SKY/WX    TMP DP  RH WIND       PRES   REMARKS
Savannah Arpt  FAIR      30  24  78 CALM      30.46S
6HR MIN TEMP:  28; 6HR MAX TEMP:  33;

Atlanta        FAIR      32  24  72 SE5       30.37F WCI  27
6HR MIN TEMP:  31; 6HR MAX TEMP:  36;

Charlotte      FAIR      25  16  68 SE3       30.42R
6HR MIN TEMP:  18; 6HR MAX TEMP:  27;

Dallas DFW     CLOUDY    24   5  44 N23       30.72R WCI   9
6HR MIN TEMP:  24; 6HR MAX TEMP:  30; 6HR PCP: TRACE;

Houston Bush   LGT RAIN  33  31  92 N22G36    30.53R WCI  21
6HR MIN TEMP:  33; 6HR MAX TEMP:  54; 6HR PCP:  0.17;

Wash National  CLOUDY    30  27  88 SE3       30.49S
6HR MIN TEMP:  30; 6HR MAX TEMP:  31;

Wash Dulles    CLOUDY    26  24  92 S3        30.46R
6HR MIN TEMP:  25; 6HR MAX TEMP:  28;

Baltimore      CLOUDY    29  27  92 SE5       30.48R FOG     WCI  24
6HR MIN TEMP:  28; 6HR MAX TEMP:  29;

Philadelphia   CLOUDY    30  24  78 E3        30.50R
6HR MIN TEMP:  29; 6HR MAX TEMP:  30;

Newark         CLOUDY    27  19  72 N6        30.51R WCI  20
6HR MIN TEMP:  22; 6HR MAX TEMP:  27;

Laguardia      CLOUDY    26  21  81 E6        30.51R WCI  19
6HR MIN TEMP:  24; 6HR MAX TEMP:  26;

J F K          MOCLDY    26  23  88 NE3       30.53R
6HR MIN TEMP:  23; 6HR MAX TEMP:  26;

Boston         CLOUDY    22  15  75 NE5       30.53S WCI  16
6HR MIN TEMP:  21; 6HR MAX TEMP:  22;

Pittsburg      LGT SNOW  24  23  96 S3        30.33S FOG
6HR MIN TEMP:  24; 6HR MAX TEMP:  26; 6HR PCP:  0.02;

Akron          LGT SNOW  20  15  81 SW3       30.34R
6HR MIN TEMP:  20; 6HR MAX TEMP:  26; 6HR PCP: TRACE;

Cleveland      FLURRIES  14   8  77 SW16      30.41R WCI  -2
6HR MIN TEMP:  14; 6HR MAX TEMP:  23; 6HR PCP: TRACE;

Cincinnati     CLOUDY     8   2  76 W12       30.46R WCI  -7
6HR MIN TEMP:   8; 6HR MAX TEMP:  14; 6HR PCP: TRACE;

Columbus       CLOUDY    10   5  78 CALM      30.45R
Detroit        LGT SNOW  15   9  76 SW9       30.37R WCI   3
6HR MIN TEMP:  15; 6HR MAX TEMP:  20; 6HR PCP: TRACE;

Chicago O`Hare FLURRIES  13   9  84 W14       30.38R WCI  -2
6HR MIN TEMP:   9; 6HR MAX TEMP:  13; 6HR PCP:  0.01;

Minneapolis    CLOUDY     1  -2  87 NW10      30.66R WCI -15
6HR MIN TEMP:  -2; 6HR MAX TEMP:   2;

Indianapolis   FAIR      -3  -8  79 SW10      30.49R WCI -20
6HR MIN TEMP:  -5; 6HR MAX TEMP:   2;

Toronto Canada FLURRIES  16  12  86 N7        30.32R WCI   6

$$




USA.gov is the U.S. government's official web portal to all federal, state and local government web resources and services.